Retour au catalogue

CZ-4 DEB

ActifSSO
NORAD 26137·DEBRIS·🇨🇳 China

Lancé Oct 14, 1999 depuis Taiyuan Satellite Launch Center

Loading…

Prochains Passages (prochaines 24 heures)

TLE

FraisSource: Space-Track

Époque: Sep 14, 2026, 19:01 UTC

1 26137U 99057Z   26257.79277466  .00002790  00000-0  10536-2 0  9994
2 26137  98.9408  20.5025 0289120 159.2532   5.2406 14.11562904349031

Suivez CZ-4 DEB en temps réel avec AllMySat

Download on the App Store